Lid_Strength_Index
9 12 13 11 10 10 12 13 14 12 9 11 11 10 9 8 9 9 9 8 8 7 6 5 5 3 2 2 2 2 2 2 1 2 2 2 2 2 2 2 2 1 1 1
11 13 10 9 10 11 12 14 14 11 9 10 11 11 9 9 8 8 8 7 7 7 6 5 5 5 3 2 2 2 2 2 2 1 1 1 1 1 1 1 1 2 2 1
12 11 8 10 11 13 13 14 14 13 11 10 12 13 11 9 8 7 7 6 6 6 6 5 6 6 6 3 3 2 2 2 1 1 1 2 2 2 2 1 1 1 1 2
11 8 10 11 12 11 15 10 11 12 14 17 12 18 12 10 9 9 8 8 8 8 7 7 6 6 6 5 3 2 2 2 2 1 2 2 2 3 2 1 1 1 1 1
12 11 11 12 12 10 13 10 11 12 14 16 14 17 13 11 12 10 9 8 8 8 8 7 6 6 7 6 6 5 3 2 2 2 2 2 2 2 1 1 1 1 1 1
11 9 9 10 9 9 9 12 13 13 14 19 15 16 14 12 11 10 8 8 9 8 7 8 8 7 7 7 7 7 7 7 6 4 1 2 2 2 2 2 2 1 1 1
12 12 10 9 12 11 11 14 19 20 20 20 14 16 13 11 10 10 9 9 8 8 9 9 9 8 8 8 7 6 7 7 7 7 6 4 1 2 2 2 2 2 2 1
15 17 11 9 11 13 13 13 18 22 21 19 14 18 14 9 8 8 9 8 9 10 9 9 9 8 8 8 7 7 7 7 7 7 7 7 6 3 1 1 1 1 1 1
15 15 11 10 9 10 13 15 11 16 17 18 17 14 12 10 11 11 10 10 10 9 10 9 9 9 9 8 8 8 8 7 7 7 7 7 7 6 5 3 1 1 1 1
12 16 12 10 9 10 11 10 16 16 21 22 18 17 15 13 11 11 11 10 10 10 10 10 9 9 9 9 9 9 8 8 8 8 8 7 7 6 5 4 3 2 1 1
10 12 14 11 13 13 13 14 14 14 16 20 21 18 11 11 11 11 10 9 10 11 11 11 10 10 10 9 10 10 10 9 9 9 9 9 8 7 6 5 3 3 1 1
10 12 16 14 10 10 10 12 12 17 18 16 17 17 8 10 10 10 10 10 10 10 11 11 11 11 11 10 10 10 11 10 10 10 10 9 8 8 7 7 4 3 3 2
10 14 17 16 13 11 13 12 11 11 13 17 19 17 10 9 10 10 11 11 10 11 11 12 12 12 12 12 11 11 11 12 11 11 10 10 9 8 8 7 6 5 4 2
8 12 15 17 15 13 15 13 12 13 17 16 16 15 12 10 10 11 11 11 12 12 13 13 13 14 13 13 13 12 12 12 12 12 11 11 10 10 10 9 8 7 6 4
9 14 13 13 13 13 13 13 13 14 14 16 14 13 11 9 9 10 10 11 12 13 14 14 14 14 14 15 15 13 14 14 13 13 12 12 10 11 11 11 10 10 9 7
9 14 13 15 13 13 14 13 12 13 13 13 13 13 9 8 8 11 12 13 14 15 15 15 15 15 15 16 16 14 16 16 15 14 13 13 12 12 12 11 11 11 10 9
11 13 15 17 13 14 16 14 13 12 11 12 15 11 9 9 11 14 15 15 16 16 17 16 16 16 16 17 15 17 17 16 16 15 14 15 14 15 14 13 12 11 10 9
12 13 13 16 15 20 14 12 10 11 11 10 14 13 12 12 15 16 16 17 17 18 18 17 17 17 17 17 17 18 17 17 17 17 16 17 17 17 16 15 13 12 11 10
9 12 15 17 17 16 15 13 12 13 13 16 15 16 15 16 17 18 17 17 18 18 17 17 17 17 17 18 18 18 18 18 18 18 19 19 18 18 18 17 15 13 11 11
10 10 14 16 21 22 15 14 13 11 15 16 15 16 16 15 16 19 18 18 18 18 18 18 18 18 19 19 19 19 19 19 19 19 19 19 19 18 18 17 16 13 11 11
14 14 16 16 21 18 15 16 14 16 15 17 17 18 18 18 19 19 19 19 18 18 19 19 20 21 20 20 20 20 20 20 20 20 20 20 19 19 19 18 15 14 12 11
15 15 16 16 21 18 20 16 15 17 18 18 19 19 19 19 19 20 20 20 19 20 20 20 22 22 21 20 21 21 21 20 20 21 21 21 21 20 18 18 16 14 12 11
15 14 16 15 17 21 20 20 18 17 19 20 20 20 20 21 21 21 21 20 20 21 21 21 22 22 21 21 21 22 21 20 21 22 22 22 21 20 19 18 16 13 11 11
16 17 17 19 21 22 21 21 21 20 21 21 21 22 21 22 22 22 21 21 21 21 22 22 22 23 23 22 22 22 21 21 22 23 22 21 20 19 18 16 14 13 12 11
20 18 19 22 22 21 22 21 21 22 22 22 22 22 22 22 23 23 22 22 21 21 22 22 23 23 24 23 23 23 21 22 22 22 21 20 19 19 18 16 14 12 12 12
26 21 19 18 21 21 21 22 21 23 24 23 23 23 23 23 23 23 23 22 22 23 23 24 24 24 25 25 24 24 22 22 22 22 20 20 19 18 17 16 12 11 11 12